Weather reports worldwide

Advertisment
Mühlacker, Germany (10736): temperature & dewpoint: 08.12.2019 05:00:00 - 14.12.2019 05:00:00 (CET)Mühlacker, Germany (10736): temperature 5cm & temperature -5cm: 08.12.2019 05:00:00 - 14.12.2019 05:00:00 (CET)Mühlacker, Germany (10736): temperature -20cm & temperature -100cm: 08.12.2019 05:00:00 - 14.12.2019 05:00:00 (CET)Mühlacker, Germany (10736): wind speed & gusts: 08.12.2019 05:00:00 - 14.12.2019 05:00:00 (CET)Mühlacker, Germany (10736): wind direction: 08.12.2019 05:00:00 - 14.12.2019 05:00:00 (CET)Mühlacker, Germany (10736): reduced air pressure: 08.12.2019 05:00:00 - 14.12.2019 05:00:00 (CET)Mühlacker, Germany (10736): visibility: 08.12.2019 05:00:00 - 14.12.2019 05:00:00 (CET)Mühlacker, Germany (10736): sunshine duration: 08.12.2019 05:00:00 - 14.12.2019 05:00:00 (CET)Mühlacker, Germany (10736): precipitation: 08.12.2019 05:00:00 - 14.12.2019 05:00:00 (CET)
Date & Time tt [°C] td [°C] tt 5cm [°C] tt -5cm [°C] tt -20cm [°C] tt -100cm [°C] ff [km/h] ff [kn] fx [km/h] fx [kn] dd ppp [hPa] vv [km] sd [min] rr [mm]
14.12.2019 05:00:00 4,4 1,8 3,5 2,5 3,9 7,8 8 5 24 13 S 989,8 70 0 0,0
14.12.2019 04:00:00 4,7 1,3 4,0 2,3 3,9 7,8 9 5 19 10 S 991,3 59 0 0,0
14.12.2019 03:00:00 4,2 1,1 3,3 2,3 3,9 7,8 7 4 13 7 SE 992,2 64 0 0,0
14.12.2019 02:00:00 5,1 0,3 3,7 2,4 4,0 7,8 7 4 18 10 SSW 993,3 59 0 0,0
14.12.2019 01:00:00 5,4 0,5 4,0 2,7 4,0 7,8 11 6 30 16 SW 992,4 46 0 0,0
14.12.2019 00:00:00 5,6 1,5 4,7 2,8 4,0 7,8 10 6 31 17 WSW 993,6 44 0 0,0
13.12.2019 23:00:00 5,8 1,7 4,5 3,3 3,9 7,8 20 11 49 26 W 992,9 41 0 0,0
13.12.2019 22:00:00 5,4 2,8 4,3 3,4 3,9 7,8 27 15 51 28 W 992,3 20 0 0,3
13.12.2019 21:00:00 5,1 3,2 4,2 3,4 3,8 7,8 32 18 54 29 W 991,2 12 0 0,4
13.12.2019 20:00:00 5,4 2,9 4,6 3,4 3,8 7,8 31 17 56 31 W 989,9 29 0 0,1
13.12.2019 19:00:00 5,3 3,0 4,3 3,3 3,7 7,8 33 18 58 31 W 988,1 42 0 0,2
13.12.2019 18:00:00 4,7 2,7 3,9 3,4 3,7 7,8 28 15 61 33 WSW 986,7 12 0 0,2
13.12.2019 17:00:00 5,2 2,7 4,4 3,5 3,5 7,8 16 8 41 22 WSW 985,6 24 0 0,0
13.12.2019 16:00:00 5,3 2,6 4,8 3,9 3,4 7,9 15 8 40 21 WSW 984,7 70 0 0,0
13.12.2019 15:00:00 5,6 3,0 5,2 4,2 3,2 7,9 25 14 47 25 WSW 983,6 25 4 0,1
13.12.2019 14:00:00 5,6 3,8 5,2 3,9 3,0 7,9 22 12 48 26 WSW 982,7 27 5 0,2
13.12.2019 13:00:00 6,7 3,2 7,3 3,1 2,9 7,9 29 16 56 30 WSW 981,7 54 1 0,0
13.12.2019 12:00:00 6,0 3,4 5,7 1,5 2,9 7,9 27 14 44 24 WSW 980,9 70 0 0,0
13.12.2019 11:00:00 3,2 2,5 2,8 0,5 2,9 7,9 4 2 19 10 E 979,8 32 0 1,4
13.12.2019 10:00:00 3,0 1,9 2,0 0,5 3,0 7,9 6 4 16 9 S 979,4 9 0 0,9
13.12.2019 09:00:00 2,6 1,6 1,8 0,6 3,0 7,9 8 4 20 11 ESE 978,8 7 0 0,8
13.12.2019 08:00:00 3,1 0,6 1,7 0,6 3,0 7,9 9 5 19 11 ESE 979,8 70 0 0,0
13.12.2019 07:00:00 2,9 0,6 1,7 0,6 3,1 7,9 7 4 20 11 ESE 981,3 70 0 0,0
13.12.2019 06:00:00 2,3 0,4 1,0 0,5 3,1 7,9 9 5 22 12 SE 983,0 59 0 0,0
13.12.2019 05:00:00 1,3 0,3 0,7 0,5 3,2 7,9 10 5 23 12 E 984,8 26 0 0,1
13.12.2019 04:00:00 0,6 0,0 0,0 0,5 3,2 7,9 11 6 26 14 ESE 986,6 2,6 0 0,1
13.12.2019 03:00:00 1,3 -1,2 0,0 0,5 3,3 7,9 12 7 22 12 ESE 988,4 24 0 0,0
13.12.2019 02:00:00 0,9 -1,5 -0,2 0,6 3,4 8,0 9 5 22 12 E 990,2 37 0 0,0
13.12.2019 01:00:00 0,1 -1,6 -0,8 0,6 3,4 8,0 8 4 19 10 ESE 991,8 30 0 0,0
13.12.2019 00:00:00 0,0 -1,8 -1,9 0,7 3,5 8,0 8 5 21 11 E 993,7 32 0 0,0
12.12.2019 23:00:00 -0,4 -1,8 -1,9 0,8 3,6 8,0 9 5 16 9 ESE 995,2 35 0 0,0
12.12.2019 22:00:00 -1,1 -1,7 -3,0 1,0 3,7 8,0 9 5 12 7 E 997,1 43 0 0,0
12.12.2019 21:00:00 -1,6 -1,8 -3,0 1,2 3,8 8,0 5 3 9 5 E 998,5 38 0 0,0
12.12.2019 20:00:00 -1,5 -1,8 -3,0 1,3 3,9 8,0 3 2 8 4 SE 999,8 34 0 0,0
12.12.2019 19:00:00 0,8 -0,9 -1,8 1,9 3,9 8,0 3 2 18 10 ESE 1001,2 70 0 0,0
12.12.2019 18:00:00 3,8 -0,1 2,5 2,8 3,9 8,0 4 2 15 8 SSW 1002,2 70 0 0,0
12.12.2019 17:00:00 3,4 1,3 2,6 3,2 3,8 8,0 4 2 10 5 SSE 1002,9 70 0 0,0
12.12.2019 16:00:00 3,6 2,0 3,0 3,9 3,7 8,0 4 2 11 6 S 1003,6 70 3 0,0
12.12.2019 15:00:00 3,8 1,4 4,1 4,0 3,5 8,0 6 3 19 10 W 1004,3 70 4 0,0
12.12.2019 14:00:00 4,1 1,7 4,1 4,2 3,3 8,0 13 7 28 15 W 1005,3 70 3 0,0
12.12.2019 13:00:00 4,6 2,2 4,5 3,9 3,2 8,0 20 11 34 19 WSW 1005,8 69 9 0,0
12.12.2019 12:00:00 4,3 2,2 4,2 3,1 3,1 8,0 16 9 33 18 W 1006,4 70 1 0,0
12.12.2019 11:00:00 3,5 3,0 3,8 2,2 3,0 8,0 5 3 11 6 W 1007,0 14 1 0,0
12.12.2019 10:00:00 2,0 2,0 2,1 1,4 3,0 8,0 3 2 5 3 ESE 1007,2 3,9 0 0,1
12.12.2019 09:00:00 1,1 1,1 0,6 1,0 3,0 8,1 0 0 5 3 N 1007,2 2,8 0 0,4
12.12.2019 08:00:00 0,4 0,4 0,1 0,7 3,1 8,1 0 0 0 0 N 1007,1 4,2 0 0,0
12.12.2019 07:00:00 0,3 0,3 0,0 0,6 3,1 8,1 0 0 0 0 N 1006,9 4,5 0 0,0
12.12.2019 06:00:00 -0,4 -0,4 -0,2 0,6 3,1 8,1 0 0 - - N 1007,0 5 0 0,0
12.12.2019 05:00:00 -0,4 -0,4 -0,2 0,6 3,2 8,1 0 0 0 0 N 1007,0 1,6 0 0,0
12.12.2019 04:00:00 -0,1 -0,1 -1,0 0,8 3,2 8,1 0 0 0 0 N 1007,6 0,8 0 0,0
12.12.2019 03:00:00 0,2 0,2 0,0 0,9 3,2 8,1 0 0 0 0 N 1008,2 4,6 0 0,0
12.12.2019 02:00:00 0,3 0,3 0,0 1,0 3,2 8,1 0 0 5 3 N 1008,5 2,6 0 0,0
12.12.2019 01:00:00 0,5 0,5 0,1 1,2 3,2 8,1 0 0 0 0 N 1008,8 2,8 0 0,0
12.12.2019 00:00:00 1,3 1,3 1,1 1,5 3,2 8,1 0 0 4 2 N 1009,1 2,0 0 0,0
11.12.2019 23:00:00 1,2 1,2 1,3 1,4 3,1 8,1 3 2 7 4 ENE 1009,5 2,3 0 0,4
11.12.2019 22:00:00 1,3 1,3 1,2 1,3 3,1 8,1 4 2 9 5 E 1009,6 2,7 0 0,6
11.12.2019 21:00:00 1,1 1,1 1,1 1,1 3,1 8,1 4 2 8 4 E 1009,9 2,4 0 1,7
11.12.2019 20:00:00 1,1 1,1 1,0 1,1 3,1 8,1 0 0 5 3 N 1010,0 1,4 0 1,4
11.12.2019 19:00:00 1,3 1,2 1,3 0,9 3,1 8,1 4 2 6 4 W 1010,0 4,0 0 1,6
11.12.2019 18:00:00 1,2 1,2 1,2 0,7 3,2 8,1 0 0 0 0 N 1009,8 1,8 0 1,8
11.12.2019 17:00:00 1,3 1,3 1,2 0,4 3,2 8,1 0 0 6 4 N 1009,8 1,5 0 1,1
11.12.2019 16:00:00 1,4 0,9 1,2 0,4 3,3 8,1 2 1 8 4 W 1009,9 4,5 0 1,1
11.12.2019 15:00:00 1,5 0,9 1,2 0,4 3,3 8,1 4 2 9 5 E 1010,3 7 0 0,8
11.12.2019 14:00:00 2,1 -0,9 1,4 0,4 3,3 8,1 4 2 11 6 WSW 1011,2 21 0 0,0
11.12.2019 13:00:00 1,9 -0,8 1,2 0,4 3,4 8,1 5 3 10 5 E 1011,7 23 0 0,0
11.12.2019 12:00:00 1,3 -1,0 0,4 0,4 3,4 8,1 6 3 9 5 ESE 1013,0 23 0 0,0
11.12.2019 11:00:00 0,4 -1,6 0,0 0,4 3,5 8,1 4 2 9 5 ESE 1014,6 24 0 0,0
11.12.2019 10:00:00 -0,4 -1,9 -0,7 0,4 3,5 8,1 4 2 9 5 ESE 1015,3 24 0 0,0
11.12.2019 09:00:00 -1,7 -2,3 -1,9 0,4 3,6 8,1 4 2 7 4 E 1016,1 17 0 0,0
11.12.2019 08:00:00 -2,2 -2,7 -2,5 0,3 3,7 8,1 2 1 8 4 NE 1016,8 18 0 0,0
11.12.2019 07:00:00 -3,3 -3,9 -4,3 0,4 3,8 8,1 0 0 3 1 N 1017,6 15 0 0,0
11.12.2019 06:00:00 -3,1 -3,7 -3,7 0,4 3,8 8,1 2 1 6 3 E 1018,0 17 0 0,0
11.12.2019 05:00:00 -3,4 -3,8 -5,0 0,5 3,9 8,1 4 2 9 5 ESE 1018,5 18 0 0,0
11.12.2019 04:00:00 -2,7 -3,2 -4,8 0,5 4,0 8,1 5 3 9 5 ESE 1019,7 17 0 0,0
11.12.2019 03:00:00 -1,9 -2,5 -3,3 0,6 4,1 8,1 6 3 9 5 ESE 1020,7 19 0 0,0
11.12.2019 02:00:00 -3,2 -3,6 -4,5 0,7 4,2 8,1 0 0 5 3 N 1021,9 15 0 0,0
11.12.2019 01:00:00 -2,3 -2,6 -3,8 0,8 4,4 8,1 5 3 10 5 ESE 1022,8 11 0 0,0
11.12.2019 00:00:00 -3,0 -3,5 -4,0 0,9 4,5 8,1 4 2 9 5 SE 1023,7 11 0 0,0
10.12.2019 23:00:00 -4,1 -4,4 -5,6 1,0 4,6 8,1 0 0 5 3 N 1024,6 19 0 0,0
10.12.2019 22:00:00 -3,8 -4,1 -5,9 1,2 4,8 8,1 0 0 0 0 N 1025,2 14 0 0,0
10.12.2019 21:00:00 -3,1 -3,4 -5,1 1,4 4,9 8,1 0 0 0 0 N 1026,0 18 0 0,0
10.12.2019 20:00:00 -3,0 -3,5 -4,7 1,7 5,1 8,1 0 0 0 0 N 1026,4 13 0 0,0
10.12.2019 19:00:00 -2,3 -2,5 -3,9 2,0 5,2 8,1 0 0 3 1 N 1026,9 17 0 0,0
10.12.2019 18:00:00 -1,4 -1,9 -3,2 2,3 5,3 8,1 0 0 5 3 N 1027,1 18 0 0,0
10.12.2019 17:00:00 0,1 -1,4 -2,0 3,3 5,3 8,1 0 0 4 2 N 1027,3 27 14 0,0
10.12.2019 16:00:00 3,8 0,1 1,9 4,9 5,1 8,1 1 0 12 7 SSW 1027,4 29 60 0,0
10.12.2019 15:00:00 5,4 -0,5 6,2 5,6 5,0 8,1 7 4 19 10 W 1027,8 38 59 0,0
10.12.2019 14:00:00 5,0 -0,5 4,6 5,4 4,8 8,1 13 7 19 10 WSW 1028,7 33 46 0,0
10.12.2019 13:00:00 4,4 0,2 3,7 5,3 4,7 8,1 10 5 18 10 WSW 1029,3 31 40 0,0
10.12.2019 12:00:00 4,9 0,5 6,1 4,4 4,6 8,1 11 6 20 11 WSW 1029,7 28 60 0,0
10.12.2019 11:00:00 4,0 0,9 4,5 2,2 4,7 8,1 9 5 14 8 WSW 1029,9 28 60 0,0
10.12.2019 10:00:00 1,1 0,2 0,1 1,4 4,8 8,1 0 0 5 3 N 1029,4 19 51 0,0
10.12.2019 09:00:00 -0,7 -0,9 -2,0 1,4 5,0 8,1 0 0 6 3 N 1029,4 13 9 0,0
10.12.2019 08:00:00 0,3 -0,3 -1,9 1,4 5,1 8,1 0 0 23 12 N 1028,5 17 0 0,0
10.12.2019 07:00:00 2,6 0,5 1,0 1,9 5,3 8,1 8 5 20 11 W 1027,7 24 0 0,0
10.12.2019 06:00:00 2,6 0,2 1,1 1,8 5,5 8,1 10 6 16 9 W 1026,4 28 0 0,0
10.12.2019 05:00:00 2,0 0,1 0,5 2,0 5,6 8,1 5 3 11 6 WNW 1025,8 26 0 0,0
10.12.2019 04:00:00 2,8 0,4 0,6 2,7 5,8 8,1 5 3 19 10 W 1024,5 26 0 0,0
10.12.2019 03:00:00 3,4 0,8 1,9 3,1 5,9 8,1 8 5 20 11 W 1023,8 26 0 0,0
10.12.2019 02:00:00 3,8 1,4 2,0 4,0 5,9 8,1 11 6 22 12 W 1022,0 25 0 0,0
10.12.2019 01:00:00 4,8 2,7 3,8 4,5 6,0 8,1 12 6 26 14 WNW 1020,4 30 0 0,0
10.12.2019 00:00:00 5,0 3,2 4,3 4,7 6,0 8,1 16 9 36 19 WNW 1018,3 58 0 0,0
09.12.2019 23:00:00 5,3 4,4 4,8 5,0 6,0 8,1 14 7 28 15 WNW 1016,2 17 0 0,4
09.12.2019 22:00:00 5,5 4,8 5,1 5,0 6,1 8,1 10 5 26 14 W 1014,3 14 0 0,3
09.12.2019 21:00:00 5,6 5,0 5,2 5,1 6,1 8,1 9 5 26 14 W 1012,6 10 0 1,7
09.12.2019 20:00:00 5,9 4,6 5,2 5,1 6,1 8,1 16 8 27 14 W 1010,8 42 0 0,2
09.12.2019 19:00:00 5,8 4,4 5,2 5,2 6,2 8,1 15 8 32 17 W 1009,5 70 0 0,0
09.12.2019 18:00:00 5,8 4,8 5,3 5,4 6,2 8,1 19 10 31 17 W 1008,0 66 0 0,6
09.12.2019 17:00:00 6,1 5,0 5,5 5,7 6,2 8,1 14 7 24 13 WSW 1006,5 18 0 1,0
09.12.2019 16:00:00 6,2 4,9 5,6 6,0 6,1 8,1 11 6 29 16 W 1005,3 17 0 1,2
09.12.2019 15:00:00 7,3 4,2 6,1 6,3 6,1 8,1 13 7 29 16 W 1004,6 12 0 0,1
09.12.2019 14:00:00 8,2 3,4 7,8 6,4 6,0 8,1 19 10 47 25 WSW 1004,1 70 0 0,0
09.12.2019 13:00:00 8,9 2,9 8,7 6,5 5,9 8,1 16 9 41 22 WSW 1003,6 70 0 0,0
09.12.2019 12:00:00 9,0 2,9 8,8 6,4 5,8 8,1 19 10 36 19 WSW 1003,8 70 11 0,0
09.12.2019 11:00:00 8,6 3,4 8,5 5,6 5,8 8,1 13 7 27 15 SSW 1004,1 70 2 0,0
09.12.2019 10:00:00 8,4 3,3 8,0 5,2 5,8 8,1 9 5 23 12 SSW 1004,0 70 47 0,0
09.12.2019 09:00:00 7,1 3,6 6,3 4,6 5,8 8,1 11 6 20 11 S 1004,4 70 1 0,0
09.12.2019 08:00:00 7,0 3,7 5,3 4,6 5,9 8,1 10 6 26 14 S 1004,9 36 0 0,0
09.12.2019 07:00:00 7,8 2,6 6,4 4,6 5,9 8,1 12 6 33 18 SW 1004,8 70 0 0,0
09.12.2019 06:00:00 7,8 2,7 6,7 4,6 6,0 8,1 17 9 42 23 WSW 1005,0 70 0 0,0
09.12.2019 05:00:00 6,7 4,3 4,9 4,9 6,1 8,1 12 6 61 33 W 1005,5 59 0 0,7
09.12.2019 04:00:00 8,7 3,1 7,8 4,9 6,1 8,1 24 13 45 25 WSW 1005,6 63 0 0,0
09.12.2019 03:00:00 8,2 3,1 6,6 4,8 6,2 8,1 18 10 32 17 WSW 1006,1 60 0 0,0
09.12.2019 02:00:00 7,6 3,0 6,0 5,0 6,3 8,1 14 8 32 17 W 1006,7 53 0 0,0
09.12.2019 01:00:00 7,4 4,1 5,8 5,6 6,3 8,1 23 12 48 26 W 1006,8 55 0 0,0
09.12.2019 00:00:00 7,6 4,8 6,6 6,1 6,3 8,1 18 10 39 21 W 1007,1 59 0 0,0
08.12.2019 23:00:00 7,8 5,1 6,6 6,6 6,2 8,1 18 10 49 27 W 1007,0 58 0 0,3
08.12.2019 22:00:00 8,5 7,4 8,2 7,1 6,2 8,1 27 15 48 26 W 1006,1 4,0 0 0,2
08.12.2019 21:00:00 11,5 7,7 10,3 6,8 6,1 8,1 6 4 19 11 WSW 1005,2 70 0 0,0
08.12.2019 20:00:00 10,9 7,4 10,3 6,8 6,0 8,1 10 6 27 14 S 1005,8 70 0 0,0
08.12.2019 19:00:00 11,2 7,4 10,5 6,8 6,0 8,1 11 6 32 18 SW 1006,4 70 0 0,0
08.12.2019 18:00:00 11,6 7,0 10,7 6,8 5,9 8,1 11 6 30 16 WSW 1006,7 70 0 0,0
08.12.2019 17:00:00 11,8 6,5 10,7 6,8 5,8 8,1 15 8 40 22 WSW 1006,9 70 0 0,0
08.12.2019 16:00:00 12,2 6,1 11,1 6,9 5,7 8,1 16 8 40 21 W 1007,3 70 0 0,0
08.12.2019 15:00:00 12,6 5,9 11,6 7,1 5,6 8,1 21 11 49 27 W 1007,9 70 0 0,0
08.12.2019 14:00:00 12,4 6,0 11,6 7,2 5,4 8,1 26 14 46 25 WSW 1009,1 70 0 0,0
08.12.2019 13:00:00 11,9 5,9 11,4 7,1 5,2 8,1 20 11 44 24 WSW 1010,4 70 0 0,0
08.12.2019 12:00:00 11,6 5,4 11,1 6,6 5,1 8,1 23 12 42 23 WSW 1011,4 70 0 0,0
08.12.2019 11:00:00 11,5 5,0 11,0 6,2 5,0 8,1 23 12 43 23 SW 1012,6 70 1 0,0
08.12.2019 10:00:00 9,1 4,3 8,8 4,9 5,0 8,2 5 3 12 6 S 1013,3 70 21 0,0
08.12.2019 09:00:00 6,1 4,3 5,4 4,2 5,0 8,2 4 2 8 4 ESE 1014,0 70 7 0,0
08.12.2019 08:00:00 7,3 4,2 5,9 4,5 5,0 8,2 4 2 11 6 S 1014,2 70 0 0,0
08.12.2019 07:00:00 7,6 4,1 6,7 4,5 5,0 8,2 6 3 16 9 SSE 1014,6 70 0 0,0
08.12.2019 06:00:00 8,7 3,8 7,3 4,5 4,9 8,2 7 4 15 8 SW 1015,2 70 0 0,0
08.12.2019 05:00:00 8,2 4,4 7,0 4,5 4,9 8,2 8 4 27 15 SW 1016,0 70 0 0,0

tt = temperature
td = dewpoint
tt 5cm = temperature 5cm
tt -5cm = temperature -5cm
tt -20cm = temperature -20cm
tt -100cm = temperature -100cm
ff = wind speed
fx = gusts
dd = wind direction
ppp = reduced air pressure
vv = visibility
sd = sunshine duration
rr = precipitation

Next stations